Home > Weather > Fort Myers > Past weeks

Flag for USA Past Weather in Fort Myers, Florida, USA — Yesterday and Last 2 Weeks

Now
74 °F

Clear.


Feels Like: 70 °F
Forecast: 76 / 90 °F
Wind: 3 mph from Southeast

Location: Page Field

Current Time: Jul 31, 2016 at 5:46:09 AM

Latest Report: Jul 31, 2016 at 4:53 AM


Visibility: 10 mi

Pressure: 30.01 "Hg

Humidity: 97%

Dew Point: 73 °F

Location of Fort MyersLocation

Past Weather in Fort Myers — Graph

°F

Fort Myers Temperature Yesterday

Maximum temperature yesterday: 92 °F (at 2:53 PM)
Minimum temperature yesterday: 73 °F (at 8:53 PM)
Average temperature yesterday: 82 °F

High & Low Weather Summary for the Past Weeks

 TemperatureHumidityPressure
High94 °F (Jul 26, 3:53 PM)100% (Jul 17, 6:53 AM)30.19 "Hg (Jul 17, 6:53 AM)
Low72 °F (Jul 24, 1:53 AM)44% (Jul 26, 3:53 PM)29.98 "Hg (Jul 30, 4:53 PM)
Average81 °F80%30.07 "Hg
* Reported Jul 16 3:53 AM — Jul 31 3:53 AM, Fort Myers, Weather by CustomWeather, © 2016

Note: Actual official high and low records may vary slightly from our data, if they occured in-between our weather recording intervals... More about our weather records

Advertising

Fort Myers Weather History for the Previous 24 Hours

Scroll right to see more
 ConditionsComfort  
Time TempWeatherWind HumidityBarometerVisibility
3:53 AM
Sun, Jul 31
74 °FClear.5 mph97%30.01 "Hg10 mi
2:53 AM74 °FClear.3 mph94%30.03 "Hg10 mi
1:53 AM74 °FClear.3 mph97%30.04 "Hg10 mi
12:53 AM75 °FClear.3 mph96%30.06 "Hg10 mi
11:53 PM
Sat, Jul 30
75 °FClear.No wind94%30.06 "Hg10 mi
10:53 PM75 °FClear.5 mph94%30.06 "Hg10 mi
9:53 PM75 °FPassing clouds.No wind94%30.06 "Hg10 mi
8:53 PM73 °FThunderstorms. Fog.12 mph94%30.06 "Hg3 mi
7:53 PM82 °FSunny.6 mph85%30.03 "Hg10 mi
6:58 PM81 °FSunny.5 mph88%30.01 "Hg10 mi
6:53 PM81 °FThunderstorms. Sunny.5 mph88%30.02 "Hg10 mi
5:53 PM90 °FThunderstorms. Partly sunny.3 mph61%30.01 "Hg10 mi
4:53 PM92 °FThundershowers. Scattered clouds.15 mph60%29.98 "Hg10 mi
3:53 PM92 °FMore clouds than sun.9 mph58%30.00 "Hg10 mi
2:53 PM92 °FScattered clouds.7 mph56%30.02 "Hg10 mi
1:53 PM91 °FPassing clouds.5 mph57%30.04 "Hg10 mi
12:53 PM89 °FSunny.8 mph68%30.06 "Hg10 mi
12:02 PM85 °FCloudy.7 mph77%30.07 "Hg10 mi
11:53 AM85 °FPartly sunny.6 mph75%30.07 "Hg10 mi
10:53 AM88 °FScattered clouds.5 mph67%30.07 "Hg10 mi
9:53 AM85 °FSunny.No wind77%30.08 "Hg10 mi
8:53 AM83 °FSunny.3 mph79%30.07 "Hg10 mi
7:53 AM79 °FSunny.3 mph94%30.05 "Hg10 mi
6:53 AM78 °FClear.No wind93%30.03 "Hg10 mi
5:53 AM78 °FClear.No wind93%30.01 "Hg10 mi
Weather by CustomWeather, © 2016

See weather overviewHow to use our weather pages